When you browse on this site, cookies collect data to enhance your experience and personalize the content and advertising you see.
Visit our Privacy Policy to learn more. By continuing to use the site, you agree to this use of cookies and data.
  • In Romania
  • List of Countries
  • For 7 days
  • Water Temperature
  • Satellite Maps
  • Weather Map
  • Weather Widgets
  • user-avatar
    Login

    Hourly Weather Gudur

    Today, 25 April, Thursday

    Time Temperature Precipitation Wind Pressure Humidity
    00:00 +30°C° 0 mm 2 mps 755 mmHg 71%
    01:00 +30°C° 0 mm 2 mps 754 mmHg 72%
    02:00 +29°C° 0 mm 2 mps 754 mmHg 74%
    03:00 +29°C° 0 mm 2 mps 754 mmHg 74%
    04:00 +29°C° 0 mm 2 mps 754 mmHg 74%
    05:00 +28°C° 0 mm 1 mps 754 mmHg 76%
    06:00 +30°C° 0 mm 2 mps 755 mmHg 67%
    07:00 +32°C° 0 mm 2 mps 755 mmHg 59%
    08:00 +34°C° 0 mm 3 mps 755 mmHg 51%
    09:00 +37°C° 0 mm 3 mps 755 mmHg 42%
    10:00 +39°C° 0 mm 3 mps 755 mmHg 34%
    11:00 +42°C° 0 mm 4 mps 755 mmHg 25%
    12:00 +43°C° 0 mm 4 mps 754 mmHg 24%
    13:00 +43°C° 0 mm 4 mps 754 mmHg 22%
    14:00 +45°C° 0 mm 5 mps 753 mmHg 20%
    15:00 +43°C° 0 mm 5 mps 753 mmHg 25%
    16:00 +41°C° 0 mm 5 mps 752 mmHg 30%
    17:00 +40°C° 0 mm 6 mps 752 mmHg 34%
    18:00 +37°C° 0 mm 5 mps 753 mmHg 43%
    19:00 +35°C° 0 mm 5 mps 753 mmHg 52%
    20:00 +33°C° 0 mm 4 mps 753 mmHg 60%
    21:00 +33°C° 0 mm 4 mps 754 mmHg 62%
    22:00 +33°C° 0 mm 4 mps 754 mmHg 63%
    23:00 +32°C° 0 mm 4 mps 754 mmHg 65%

    Tomorrow, 26 April, Friday

    Time Temperature Precipitation Wind Pressure Humidity
    00:00 +32°C° 0 mm 4 mps 753 mmHg 65%
    01:00 +32°C° 0 mm 4 mps 753 mmHg 65%
    02:00 +30°C° 0 mm 5 mps 752 mmHg 66%
    03:00 +30°C° 0 mm 4 mps 752 mmHg 66%
    04:00 +30°C° 0 mm 4 mps 752 mmHg 66%
    05:00 +29°C° 0 mm 4 mps 752 mmHg 66%
    06:00 +32°C° 0 mm 4 mps 752 mmHg 58%
    07:00 +34°C° 0 mm 4 mps 753 mmHg 50%
    08:00 +36°C° 0 mm 3 mps 753 mmHg 42%
    09:00 +38°C° 0 mm 3 mps 753 mmHg 36%
    10:00 +40°C° 0 mm 3 mps 753 mmHg 29%
    11:00 +43°C° 0 mm 3 mps 753 mmHg 23%
    12:00 +44°C° 0 mm 4 mps 752 mmHg 23%
    13:00 +45°C° 0 mm 4 mps 752 mmHg 23%
    14:00 +46°C° 0 mm 5 mps 751 mmHg 23%
    15:00 +44°C° 0 mm 6 mps 751 mmHg 32%
    16:00 +40°C° 0 mm 6 mps 751 mmHg 40%
    17:00 +38°C° 0 mm 7 mps 751 mmHg 49%
    18:00 +36°C° 0 mm 6 mps 752 mmHg 55%
    19:00 +35°C° 0 mm 6 mps 753 mmHg 60%
    20:00 +33°C° 0 mm 5 mps 753 mmHg 65%
    21:00 +33°C° 0 mm 5 mps 754 mmHg 67%
    22:00 +33°C° 0 mm 4 mps 754 mmHg 70%
    23:00 +33°C° 0 mm 4 mps 754 mmHg 72%

    Day after tomorrow, 27 April, Saturday

    Time Temperature Precipitation Wind Pressure Humidity
    00:00 +32°C° 0 mm 4 mps 753 mmHg 72%
    01:00 +31°C° 0 mm 3 mps 753 mmHg 73%
    02:00 +31°C° 0 mm 3 mps 752 mmHg 73%
    03:00 +32°C° 0 mm 4 mps 752 mmHg 74%
    04:00 +30°C° 0 mm 4 mps 752 mmHg 74%
    05:00 +30°C° 0 mm 4 mps 752 mmHg 74%
    06:00 +32°C° 0 mm 4 mps 753 mmHg 69%
    07:00 +33°C° 0 mm 4 mps 753 mmHg 64%
    08:00 +35°C° 0 mm 4 mps 754 mmHg 58%
    09:00 +36°C° 0 mm 3 mps 754 mmHg 50%
    10:00 +38°C° 0 mm 3 mps 754 mmHg 41%
    11:00 +40°C° 0 mm 3 mps 753 mmHg 33%
    12:00 +42°C° 0 mm 3 mps 753 mmHg 32%
    13:00 +42°C° 0 mm 4 mps 752 mmHg 31%
    14:00 +43°C° 0 mm 4 mps 751 mmHg 30%
    15:00 +41°C° 0 mm 5 mps 751 mmHg 38%
    16:00 +39°C° 0 mm 6 mps 751 mmHg 47%
    17:00 +36°C° 0 mm 6 mps 751 mmHg 55%
    18:00 +35°C° 0 mm 6 mps 752 mmHg 59%
    19:00 +34°C° 0 mm 5 mps 753 mmHg 63%
    20:00 +33°C° 0 mm 5 mps 753 mmHg 66%
    21:00 +33°C° 0 mm 4 mps 754 mmHg 68%
    22:00 +32°C° 0 mm 4 mps 754 mmHg 71%
    23:00 +32°C° 0 mm 4 mps 754 mmHg 73%

    28 April, Sunday

    Time Temperature Precipitation Wind Pressure Humidity
    00:00 +32°C° 0 mm 4 mps 753 mmHg 74%
    01:00 +30°C° 0 mm 4 mps 752 mmHg 76%
    02:00 +30°C° 0 mm 4 mps 752 mmHg 77%
    03:00 +30°C° 0 mm 4 mps 752 mmHg 76%
    04:00 +30°C° 0 mm 4 mps 752 mmHg 74%
    05:00 +30°C° 0 mm 4 mps 751 mmHg 72%
    06:00 +33°C° 0 mm 4 mps 752 mmHg 67%
    07:00 +34°C° 0 mm 4 mps 752 mmHg 62%
    08:00 +35°C° 0 mm 4 mps 753 mmHg 56%
    09:00 +37°C° 0 mm 4 mps 753 mmHg 48%
    10:00 +40°C° 0 mm 4 mps 753 mmHg 40%
    11:00 +42°C° 0 mm 4 mps 753 mmHg 32%
    12:00 +42°C° 0 mm 5 mps 752 mmHg 32%
    13:00 +42°C° 0 mm 6 mps 751 mmHg 32%
    14:00 +44°C° 0 mm 6 mps 751 mmHg 32%
    15:00 +41°C° 0 mm 6 mps 751 mmHg 39%
    16:00 +39°C° 0 mm 6 mps 750 mmHg 45%
    17:00 +37°C° 0 mm 5 mps 750 mmHg 51%
    18:00 +35°C° 0 mm 5 mps 751 mmHg 58%
    19:00 +34°C° 0 mm 4 mps 752 mmHg 65%
    20:00 +33°C° 0 mm 3 mps 752 mmHg 72%
    21:00 +33°C° 0 mm 3 mps 753 mmHg 74%
    22:00 +31°C° 0 mm 3 mps 753 mmHg 77%
    23:00 +31°C° 0 mm 3 mps 753 mmHg 79%

    29 April, Monday

    Time Temperature Precipitation Wind Pressure Humidity
    00:00 +31°C° 0 mm 3 mps 752 mmHg 81%
    01:00 +31°C° 0 mm 2 mps 752 mmHg 82%
    02:00 +31°C° 0 mm 2 mps 751 mmHg 83%
    03:00 +30°C° 0 mm 2 mps 751 mmHg 85%
    04:00 +30°C° 0 mm 2 mps 751 mmHg 86%
    05:00 +30°C° 0 mm 1 mps 751 mmHg 87%
    06:00 +31°C° 0 mm 2 mps 752 mmHg 79%
    07:00 +32°C° 0 mm 2 mps 752 mmHg 72%
    08:00 +35°C° 0 mm 2 mps 753 mmHg 64%
    09:00 +36°C° 0 mm 3 mps 753 mmHg 58%
    10:00 +38°C° 0 mm 4 mps 753 mmHg 51%
    11:00 +40°C° 0 mm 5 mps 753 mmHg 45%
    12:00 +40°C° 0 mm 5 mps 752 mmHg 44%
    13:00 +40°C° 0 mm 6 mps 751 mmHg 43%
    14:00 +41°C° 0 mm 6 mps 750 mmHg 42%
    15:00 +39°C° 0 mm 6 mps 751 mmHg 49%
    16:00 +38°C° 0 mm 6 mps 751 mmHg 57%
    17:00 +35°C° 0 mm 5 mps 751 mmHg 64%
    18:00 +34°C° 0 mm 4 mps 751 mmHg 67%
    19:00 +34°C° 0 mm 3 mps 752 mmHg 70%
    20:00 +33°C° 0 mm 3 mps 753 mmHg 73%
    21:00 +32°C° 0 mm 2 mps 753 mmHg 74%
    22:00 +32°C° 0 mm 2 mps 753 mmHg 76%
    23:00 +31°C° 0 mm 2 mps 753 mmHg 77%

    30 April, Tuesday

    Time Temperature Precipitation Wind Pressure Humidity
    00:00 +31°C° 0 mm 2 mps 752 mmHg 78%
    01:00 +31°C° 0 mm 2 mps 752 mmHg 79%
    02:00 +31°C° 0 mm 2 mps 751 mmHg 80%
    03:00 +31°C° 0 mm 2 mps 751 mmHg 81%
    04:00 +31°C° 0 mm 2 mps 751 mmHg 81%
    05:00 +31°C° 0 mm 1 mps 751 mmHg 81%
    06:00 +31°C° 0 mm 2 mps 751 mmHg 78%
    07:00 +33°C° 0 mm 3 mps 752 mmHg 74%
    08:00 +33°C° 0 mm 3 mps 752 mmHg 71%
    09:00 +35°C° 0.6 mm 4 mps 752 mmHg 65%
    10:00 +36°C° 0.6 mm 5 mps 752 mmHg 58%
    11:00 +38°C° 0.6 mm 6 mps 752 mmHg 52%
    12:00 +36°C° 1.6 mm 6 mps 751 mmHg 55%
    13:00 +35°C° 1.6 mm 6 mps 750 mmHg 58%
    14:00 +34°C° 1.6 mm 6 mps 750 mmHg 61%
    15:00 +34°C° 0.2 mm 6 mps 750 mmHg 63%
    16:00 +33°C° 0.2 mm 6 mps 749 mmHg 65%
    17:00 +33°C° 0.2 mm 6 mps 749 mmHg 66%
    18:00 +32°C° 1.5 mm 6 mps 750 mmHg 70%
    19:00 +32°C° 1.5 mm 7 mps 750 mmHg 74%
    20:00 +31°C° 1.5 mm 8 mps 751 mmHg 78%
    21:00 +30°C° 0.2 mm 7 mps 750 mmHg 78%
    22:00 +30°C° 0.2 mm 7 mps 750 mmHg 78%
    23:00 +32°C° 0.2 mm 7 mps 750 mmHg 78%
    Show more